Silver Bay, MN

5:10 AM CDT on July 24, 2017 (GMT -0500)
Silver Bay Municipal

Weather History for KBFW - September, 2013

Change the Weather History Date:

Wednesday, September 4, 2013

  Actual Average Record
Temperature  
Mean Temperature 52 °F -  
Max Temperature 62 °F 69 °F 86 °F (1998)
Min Temperature 42 °F 44 °F 32 °F (1997)
Degree Days  
Heating Degree Days 13    
Growing Degree Days 2 (Base 50)    
Moisture  
Dew Point 46 °F    
Average Humidity 71    
Maximum Humidity 93    
Minimum Humidity 54    
Precipitation  
Precipitation 0.00 in - - ()
Sea Level Pressure  
Sea Level Pressure 30.11 in    
Wind  
Wind Speed 1 mph (ENE)    
Max Wind Speed 14 mph    
Max Gust Speed 22 mph    
Visibility 10 miles    
Events      
Averages and records for this station are not official NWS values.
T = Trace of Precipitation, MM = Missing Value Source: NWS Daily Summary

Daily Weather History Graph

Daily Weather History Graph

Search for Another Location

Airport or City:

Trip Planner

Search our weather history database for the weather conditions in past years. The results will help you decide how hot, cold, wet, or windy it might be!

Date:

Astronomy

Sep. 04, 2013 Rise Set
Actual Time 6:29 AM CDT 7:39 PM CDT
Civil Twilight 5:57 AM CDT 8:10 PM CDT
Nautical Twilight 5:19 AM CDT 8:48 PM CDT
Astronomical Twilight 4:39 AM CDT 9:28 PM CDT
Moon 5:41 AM CDT (9/4) 6:56 PM CDT (9/4)
Length of Visible Light 14h 12m
Length of Day
13h 10m
Waning Crescent, 1% of the Moon is Illuminated
Sep 4
Waning Crescent
Sep 5
New
Sep 12
First Quarter
Sep 19
Full
Sep 26
Last Quarter

Hourly Weather History & Observations

Time (CDT) Temp. Dew Point Humidity Pressure Visibility Wind Dir Wind Speed Gust Speed Precip Events Conditions
12:13 AM 62.6 °F 53.6 °F 72% 29.92 in 10.0 mi Calm Calm - N/A   Clear
12:33 AM 62.6 °F 53.6 °F 72% 29.92 in 10.0 mi Calm Calm - N/A   Clear
12:53 AM 62.6 °F 53.6 °F 72% 29.93 in 10.0 mi Calm Calm - N/A   Clear
1:13 AM 62.6 °F 55.4 °F 77% 29.93 in 10.0 mi Calm Calm - N/A   Clear
1:33 AM 62.6 °F 55.4 °F 77% 29.94 in 10.0 mi Calm Calm - N/A   Clear
1:53 AM 62.6 °F 55.4 °F 77% 29.94 in 10.0 mi Calm Calm - N/A   Clear
2:13 AM 60.8 °F 55.4 °F 82% 29.95 in 10.0 mi Calm Calm - N/A   Clear
2:33 AM 60.8 °F 55.4 °F 82% 29.96 in 10.0 mi Calm Calm - N/A   Scattered Clouds
2:53 AM 60.8 °F 55.4 °F 82% 29.97 in 10.0 mi Calm Calm - N/A   Clear
3:13 AM 60.8 °F 55.4 °F 82% 29.98 in 10.0 mi Calm Calm - N/A   Scattered Clouds
3:33 AM 60.8 °F 55.4 °F 82% 29.99 in 10.0 mi Calm Calm - N/A   Clear
3:53 AM 60.8 °F 53.6 °F 77% 30.01 in 10.0 mi ENE 13.8 mph 21.9 mph N/A   Scattered Clouds
4:13 AM 60.8 °F 53.6 °F 77% 30.02 in 10.0 mi NE 5.8 mph 19.6 mph N/A   Mostly Cloudy
4:34 AM 59.0 °F 51.8 °F 77% 30.04 in 10.0 mi Calm Calm - N/A   Mostly Cloudy
4:53 AM 57.2 °F 51.8 °F 82% 30.04 in 10.0 mi Calm Calm - N/A   Mostly Cloudy
5:13 AM 57.2 °F 51.8 °F 82% 30.05 in 10.0 mi Calm Calm - N/A   Scattered Clouds
5:33 AM 57.2 °F 50.0 °F 77% 30.06 in 10.0 mi ENE 5.8 mph - N/A   Scattered Clouds
5:53 AM 55.4 °F 50.0 °F 82% 30.07 in 10.0 mi NE 6.9 mph - N/A   Scattered Clouds
6:13 AM 55.4 °F 48.2 °F 77% 30.08 in 10.0 mi Calm Calm - N/A   Scattered Clouds
6:33 AM 55.4 °F 48.2 °F 77% 30.09 in 10.0 mi Calm Calm - N/A   Scattered Clouds
6:53 AM 53.6 °F 46.4 °F 77% 30.11 in 10.0 mi Calm Calm - N/A   Scattered Clouds
7:13 AM 53.6 °F 44.6 °F 72% 30.12 in 10.0 mi Calm Calm - N/A   Clear
7:33 AM 53.6 °F 44.6 °F 72% 30.13 in 10.0 mi East 3.5 mph - N/A   Clear
7:53 AM 53.6 °F 44.6 °F 72% 30.14 in 10.0 mi Calm Calm - N/A   Clear
8:13 AM 53.6 °F 42.8 °F 67% 30.15 in 10.0 mi East 8.1 mph - N/A   Clear
8:33 AM 53.6 °F 42.8 °F 67% 30.16 in 10.0 mi East 9.2 mph - N/A   Clear
8:53 AM 53.6 °F 42.8 °F 67% 30.16 in 10.0 mi East 5.8 mph - N/A   Clear
9:13 AM 55.4 °F 42.8 °F 63% 30.17 in 10.0 mi East 10.4 mph - N/A   Clear
9:33 AM 53.6 °F 42.8 °F 67% 30.17 in 10.0 mi Calm Calm - N/A   Clear
9:53 AM 55.4 °F 42.8 °F 63% 30.18 in 10.0 mi Calm Calm - N/A   Clear
10:13 AM 55.4 °F 42.8 °F 63% 30.18 in 10.0 mi East 4.6 mph - N/A   Clear
10:33 AM 55.4 °F 42.8 °F 63% 30.19 in 10.0 mi East 3.5 mph - N/A   Clear
10:53 AM 55.4 °F 41.0 °F 58% 30.18 in 10.0 mi East 3.5 mph - N/A   Clear
11:13 AM 55.4 °F 39.2 °F 54% 30.19 in 10.0 mi Calm Calm - N/A   Clear
11:33 AM 55.4 °F 42.8 °F 63% 30.19 in 10.0 mi Calm Calm - N/A   Clear
11:53 AM 57.2 °F 42.8 °F 59% 30.19 in 10.0 mi Calm Calm - N/A   Clear
12:13 PM 57.2 °F 41.0 °F 55% 30.17 in 10.0 mi Calm Calm - N/A   Clear
12:33 PM 59.0 °F 42.8 °F 55% 30.17 in 10.0 mi Calm Calm - N/A   Clear
12:53 PM 57.2 °F 42.8 °F 59% 30.16 in 10.0 mi Calm Calm - N/A   Clear
1:14 PM 57.2 °F 42.8 °F 59% 30.17 in 10.0 mi Calm Calm - N/A   Clear
1:33 PM 57.2 °F 44.6 °F 63% 30.16 in 10.0 mi Calm Calm - N/A   Clear
1:53 PM 57.2 °F 42.8 °F 59% 30.16 in 10.0 mi Calm Calm - N/A   Clear
2:13 PM 59.0 °F 44.6 °F 59% 30.15 in 10.0 mi Calm Calm - N/A   Clear
2:33 PM 59.0 °F 44.6 °F 59% 30.15 in 10.0 mi Calm Calm - N/A   Clear
2:53 PM 59.0 °F 44.6 °F 59% 30.15 in 10.0 mi Calm Calm - N/A   Clear
3:13 PM 59.0 °F 46.4 °F 63% 30.15 in 10.0 mi Calm Calm - N/A   Clear
3:33 PM 59.0 °F 44.6 °F 59% 30.14 in 10.0 mi Calm Calm - N/A   Clear
3:54 PM 59.0 °F 44.6 °F 59% 30.14 in 10.0 mi Calm Calm - N/A   Clear
4:13 PM 59.0 °F 44.6 °F 59% 30.14 in 10.0 mi Calm Calm - N/A   Clear
4:33 PM 60.8 °F 44.6 °F 55% 30.14 in 10.0 mi Calm Calm - N/A   Clear
4:53 PM 60.8 °F 44.6 °F 55% 30.14 in 10.0 mi Calm Calm - N/A   Clear
5:13 PM 60.8 °F 44.6 °F 55% 30.14 in 10.0 mi Calm Calm - N/A   Clear
5:33 PM 60.8 °F 44.6 °F 55% 30.14 in 10.0 mi Calm Calm - N/A   Clear
5:53 PM 60.8 °F 46.4 °F 59% 30.14 in 10.0 mi Calm Calm - N/A   Clear
6:13 PM 60.8 °F 46.4 °F 59% 30.14 in 10.0 mi Calm Calm - N/A   Clear
6:33 PM 59.0 °F 46.4 °F 63% 30.14 in 10.0 mi Calm Calm - N/A   Clear
6:53 PM 57.2 °F 46.4 °F 67% 30.14 in 10.0 mi Calm Calm - N/A   Clear
7:13 PM 55.4 °F 46.4 °F 72% 30.14 in 10.0 mi Calm Calm - N/A   Clear
7:33 PM 53.6 °F 48.2 °F 82% 30.14 in 10.0 mi Calm Calm - N/A   Clear
7:53 PM 51.8 °F 48.2 °F 88% 30.15 in 10.0 mi Calm Calm - N/A   Clear
8:13 PM 51.8 °F 46.4 °F 82% 30.15 in 10.0 mi Calm Calm - N/A   Clear
8:33 PM 50.0 °F 46.4 °F 87% 30.16 in 10.0 mi Calm Calm - N/A   Clear
8:53 PM 48.2 °F 44.6 °F 87% 30.17 in 10.0 mi Calm Calm - N/A   Clear
9:13 PM 48.2 °F 44.6 °F 87% 30.17 in 10.0 mi Calm Calm - N/A   Clear
9:33 PM 46.4 °F 44.6 °F 93% 30.17 in 10.0 mi Calm Calm - N/A   Clear
9:53 PM 46.4 °F 42.8 °F 87% 30.18 in 10.0 mi Calm Calm - N/A   Clear
10:13 PM 46.4 °F 42.8 °F 87% 30.18 in 10.0 mi Calm Calm - N/A   Clear
10:33 PM 46.4 °F 42.8 °F 87% 30.18 in 10.0 mi Calm Calm - N/A   Clear
10:53 PM 44.6 °F 41.0 °F 87% 30.18 in 10.0 mi Calm Calm - N/A   Clear
11:13 PM 44.6 °F 39.2 °F 81% 30.18 in 10.0 mi Calm Calm - N/A   Clear
11:33 PM 42.8 °F 37.4 °F 81% 30.18 in 10.0 mi Calm Calm - N/A   Clear
11:53 PM 42.8 °F 39.2 °F 87% 30.18 in 10.0 mi Calm Calm - N/A   Clear